LVS073 SADF-SAAR

Flight info

Callsign LVS073
Flight time N/A
Altitude 2000
Route ATOVO W5 ESKON
Aircraft BR23/L-SFG/C

Departure

Time 2026-04-26 20:54
Airport San Fernando Airport (SADF)

Arrival

Time N/A
Airport Rosario Islas Malvinas International Airport (SAAR)
Time Latitude Longitude Altitude Speed Heading
2026-04-26 20:35 -34.45656 -58.58665 22 ft 0 kts 333°
2026-04-26 20:47 -34.45649 -58.58669 22 ft 9 kts 327°
2026-04-26 20:47 -34.45561 -58.58514 22 ft 22 kts 63°
2026-04-26 20:47 -34.45490 -58.58349 22 ft 22 kts 64°
2026-04-26 20:48 -34.45422 -58.58192 22 ft 21 kts 63°
2026-04-26 20:48 -34.45357 -58.58038 22 ft 21 kts 63°
2026-04-26 20:48 -34.45315 -58.57980 22 ft 7 kts 328°
2026-04-26 20:48 -34.45279 -58.58007 22 ft 11 kts 329°
2026-04-26 20:49 -34.45216 -58.58052 22 ft 11 kts 328°
2026-04-26 20:49 -34.45161 -58.58091 22 ft 8 kts 328°
2026-04-26 20:49 -34.45075 -58.58155 22 ft 11 kts 332°
2026-04-26 20:49 -34.45022 -58.58192 22 ft 8 kts 329°
2026-04-26 20:50 -34.44991 -58.58213 22 ft 6 kts 329°
2026-04-26 20:50 -34.44960 -58.58236 22 ft 6 kts 325°
2026-04-26 20:50 -34.44925 -58.58261 22 ft 5 kts 329°
2026-04-26 20:50 -34.44908 -58.58273 22 ft 0 kts 326°
2026-04-26 20:51 -34.44880 -58.58303 22 ft 18 kts 312°
2026-04-26 20:51 -34.44862 -58.58388 22 ft 6 kts 232°
2026-04-26 20:52 -34.44866 -58.58394 22 ft 0 kts 221°
2026-04-26 20:52 -34.44993 -58.58540 31 ft 53 kts 228°
2026-04-26 20:52 -34.45305 -58.58902 120 ft 67 kts 229°
2026-04-26 20:53 -34.45633 -58.59286 311 ft 59 kts 230°
2026-04-26 20:53 -34.45896 -58.59607 666 ft 50 kts 232°
2026-04-26 20:53 -34.46131 -58.59909 1022 ft 49 kts 232°
2026-04-26 20:53 -34.46374 -58.60196 1407 ft 50 kts 232°
2026-04-26 20:54 -34.46626 -58.60498 1803 ft 49 kts 230°
2026-04-26 20:54 -34.46861 -58.60823 2001 ft 61 kts 231°
2026-04-26 20:54 -34.47171 -58.61255 2015 ft 72 kts 232°
2026-04-26 20:54 -34.47509 -58.61724 2014 ft 74 kts 232°
2026-04-26 20:55 -34.47844 -58.62181 2012 ft 72 kts 230°
2026-04-26 20:55 -34.48098 -58.62695 2010 ft 73 kts 247°
2026-04-26 20:55 -34.48175 -58.63310 2011 ft 76 kts 263°
2026-04-26 20:55 -34.48037 -58.63945 2008 ft 82 kts 281°
2026-04-26 20:56 -34.47666 -58.64502 2009 ft 88 kts 298°
2026-04-26 20:56 -34.47235 -58.65024 2003 ft 87 kts 295°
2026-04-26 20:56 -34.46809 -58.65545 2005 ft 87 kts 296°
2026-04-26 20:56 -34.46385 -58.66064 2006 ft 86 kts 296°
2026-04-26 20:57 -34.45961 -58.66584 2007 ft 87 kts 296°
2026-04-26 20:57 -34.45534 -58.67106 2003 ft 87 kts 296°
2026-04-26 20:57 -34.45108 -58.67628 2005 ft 87 kts 296°
2026-04-26 20:57 -34.44680 -58.68152 2000 ft 87 kts 296°
2026-04-26 20:58 -34.44254 -58.68675 2000 ft 88 kts 297°
2026-04-26 20:58 -34.43823 -58.69202 1999 ft 88 kts 297°
2026-04-26 20:58 -34.43394 -58.69727 2001 ft 89 kts 297°
2026-04-26 20:58 -34.42955 -58.70266 1999 ft 90 kts 297°
2026-04-26 20:59 -34.42515 -58.70803 2003 ft 90 kts 297°
2026-04-26 20:59 -34.42075 -58.71341 2001 ft 90 kts 297°
2026-04-26 20:59 -34.41634 -58.71880 2002 ft 90 kts 297°
2026-04-26 20:59 -34.41191 -58.72420 2002 ft 90 kts 297°
2026-04-26 21:00 -34.40752 -58.72959 2003 ft 90 kts 297°
2026-04-26 21:00 -34.40318 -58.73491 2004 ft 90 kts 297°
2026-04-26 21:00 -34.39876 -58.74030 2003 ft 90 kts 297°
2026-04-26 21:00 -34.39438 -58.74564 2003 ft 89 kts 296°
2026-04-26 21:01 -34.39004 -58.75095 2005 ft 88 kts 296°
2026-04-26 21:01 -34.38574 -58.75619 1998 ft 87 kts 295°
2026-04-26 21:01 -34.38149 -58.76141 1994 ft 87 kts 295°
2026-04-26 21:01 -34.37726 -58.76657 1995 ft 86 kts 295°
2026-04-26 21:02 -34.37307 -58.77171 1996 ft 86 kts 294°
2026-04-26 21:02 -34.36884 -58.77686 2000 ft 87 kts 295°
2026-04-26 21:02 -34.36454 -58.78208 1999 ft 88 kts 295°
2026-04-26 21:02 -34.36027 -58.78733 2003 ft 89 kts 295°
2026-04-26 21:03 -34.35589 -58.79267 2009 ft 90 kts 295°
2026-04-26 21:03 -34.35148 -58.79807 2011 ft 90 kts 296°
2026-04-26 21:03 -34.34704 -58.80346 2009 ft 90 kts 295°
2026-04-26 21:03 -34.34265 -58.80882 2011 ft 90 kts 295°
2026-04-26 21:04 -34.33827 -58.81415 2014 ft 89 kts 295°
2026-04-26 21:04 -34.33393 -58.81945 2016 ft 89 kts 295°
2026-04-26 21:04 -34.32955 -58.82480 2014 ft 90 kts 295°
2026-04-26 21:04 -34.32515 -58.83018 2016 ft 90 kts 295°
2026-04-26 21:05 -34.32077 -58.83551 2016 ft 89 kts 295°
2026-04-26 21:05 -34.31638 -58.84083 2014 ft 88 kts 295°
2026-04-26 21:05 -34.31211 -58.84605 2018 ft 89 kts 295°
2026-04-26 21:05 -34.30778 -58.85134 2017 ft 89 kts 295°
2026-04-26 21:06 -34.30344 -58.85664 2027 ft 89 kts 295°
2026-04-26 21:06 -34.29908 -58.86194 2024 ft 89 kts 296°
2026-04-26 21:06 -34.29472 -58.86725 2022 ft 89 kts 296°
2026-04-26 21:06 -34.29033 -58.87260 2024 ft 90 kts 296°
2026-04-26 21:07 -34.28591 -58.87799 2022 ft 91 kts 296°
2026-04-26 21:07 -34.28144 -58.88342 2020 ft 91 kts 297°
2026-04-26 21:07 -34.27692 -58.88893 2023 ft 92 kts 297°
2026-04-26 21:07 -34.27240 -58.89442 2023 ft 92 kts 297°
2026-04-26 21:08 -34.26793 -58.89986 2020 ft 92 kts 297°
2026-04-26 21:08 -34.26342 -58.90535 2019 ft 92 kts 297°
2026-04-26 21:08 -34.25891 -58.91083 2019 ft 92 kts 297°
2026-04-26 21:08 -34.25441 -58.91632 2019 ft 92 kts 297°
2026-04-26 21:09 -34.24992 -58.92176 2016 ft 91 kts 297°
2026-04-26 21:09 -34.24546 -58.92719 2013 ft 91 kts 296°
2026-04-26 21:09 -34.24101 -58.93259 2013 ft 90 kts 296°
2026-04-26 21:09 -34.23662 -58.93791 2014 ft 89 kts 296°
2026-04-26 21:10 -34.23227 -58.94321 2014 ft 89 kts 296°
2026-04-26 21:10 -34.22791 -58.94852 2016 ft 89 kts 296°
2026-04-26 21:10 -34.22350 -58.95388 2020 ft 90 kts 296°
2026-04-26 21:10 -34.21904 -58.95930 2020 ft 91 kts 296°
2026-04-26 21:11 -34.21455 -58.96474 2018 ft 91 kts 296°
2026-04-26 21:11 -34.21007 -58.97019 2019 ft 91 kts 296°
2026-04-26 21:11 -34.20561 -58.97560 2020 ft 91 kts 296°
2026-04-26 21:11 -34.20114 -58.98103 2022 ft 91 kts 296°
2026-04-26 21:12 -34.19669 -58.98644 2025 ft 90 kts 297°
2026-04-26 21:12 -34.19229 -58.99176 2025 ft 89 kts 296°
2026-04-26 21:12 -34.18800 -58.99696 2024 ft 88 kts 296°
2026-04-26 21:12 -34.18368 -59.00220 2024 ft 88 kts 296°
2026-04-26 21:13 -34.17916 -59.00769 2025 ft 87 kts 296°
2026-04-26 21:13 -34.17487 -59.01290 2025 ft 87 kts 296°
2026-04-26 21:13 -34.17057 -59.01811 2026 ft 87 kts 296°
2026-04-26 21:13 -34.16628 -59.02331 2025 ft 87 kts 296°
2026-04-26 21:14 -34.16197 -59.02855 2026 ft 88 kts 296°
2026-04-26 21:14 -34.15766 -59.03376 2026 ft 88 kts 296°
2026-04-26 21:14 -34.15333 -59.03902 2026 ft 88 kts 295°
2026-04-26 21:14 -34.14906 -59.04420 2025 ft 89 kts 295°
2026-04-26 21:15 -34.14470 -59.04947 2029 ft 89 kts 295°
2026-04-26 21:15 -34.14032 -59.05478 2026 ft 89 kts 295°
2026-04-26 21:15 -34.13596 -59.06007 2023 ft 89 kts 295°
2026-04-26 21:15 -34.13157 -59.06538 2022 ft 89 kts 295°
2026-04-26 21:16 -34.12718 -59.07070 2030 ft 89 kts 296°
2026-04-26 21:16 -34.12279 -59.07601 2028 ft 89 kts 296°
2026-04-26 21:16 -34.11840 -59.08132 2024 ft 89 kts 296°
2026-04-26 21:16 -34.11405 -59.08658 2027 ft 88 kts 295°
2026-04-26 21:17 -34.10970 -59.09184 2028 ft 88 kts 295°
2026-04-26 21:17 -34.10542 -59.09703 2027 ft 89 kts 295°
2026-04-26 21:17 -34.10106 -59.10230 2027 ft 89 kts 295°
2026-04-26 21:17 -34.09670 -59.10758 2028 ft 89 kts 295°
2026-04-26 21:18 -34.09232 -59.11287 2029 ft 89 kts 295°
2026-04-26 21:18 -34.08794 -59.11818 2032 ft 90 kts 295°
2026-04-26 21:18 -34.08352 -59.12352 2034 ft 90 kts 295°
2026-04-26 21:18 -34.07906 -59.12891 2033 ft 91 kts 296°
2026-04-26 21:19 -34.07460 -59.13429 2033 ft 90 kts 295°
2026-04-26 21:19 -34.07020 -59.13961 2032 ft 91 kts 295°
2026-04-26 21:19 -34.06572 -59.14502 2034 ft 92 kts 296°
2026-04-26 21:19 -34.06122 -59.15048 2034 ft 91 kts 295°
2026-04-26 21:20 -34.05722 -59.15622 2035 ft 89 kts 291°
2026-04-26 21:20 -34.05323 -59.16196 2033 ft 89 kts 291°
2026-04-26 21:20 -34.04930 -59.16764 2036 ft 88 kts 292°
2026-04-26 21:20 -34.04537 -59.17332 2038 ft 88 kts 292°
2026-04-26 21:21 -34.04144 -59.17899 2039 ft 88 kts 292°
2026-04-26 21:21 -34.03751 -59.18467 2046 ft 88 kts 292°
2026-04-26 21:21 -34.03358 -59.19034 2050 ft 88 kts 292°
2026-04-26 21:21 -34.02966 -59.19600 2057 ft 88 kts 292°
2026-04-26 21:22 -34.02575 -59.20164 2055 ft 87 kts 292°
2026-04-26 21:22 -34.02186 -59.20725 2053 ft 87 kts 291°
2026-04-26 21:22 -34.01801 -59.21279 2055 ft 86 kts 291°
2026-04-26 21:23 -34.01039 -59.22378 2051 ft 85 kts 291°
2026-04-26 21:23 -34.00660 -59.22925 2049 ft 85 kts 291°
2026-04-26 21:23 -34.00279 -59.23474 2053 ft 85 kts 291°
2026-04-26 21:23 -33.99899 -59.24023 2043 ft 86 kts 291°
2026-04-26 21:24 -33.99516 -59.24576 2048 ft 86 kts 291°
2026-04-26 21:24 -33.99133 -59.25128 2046 ft 87 kts 292°
2026-04-26 21:24 -33.98739 -59.25695 2044 ft 89 kts 292°
2026-04-26 21:24 -33.98343 -59.26267 2049 ft 89 kts 292°
2026-04-26 21:25 -33.97942 -59.26844 2048 ft 90 kts 292°
2026-04-26 21:25 -33.97540 -59.27422 2052 ft 90 kts 291°
2026-04-26 21:25 -33.97138 -59.28002 2054 ft 90 kts 291°
2026-04-26 21:25 -33.96734 -59.28582 2056 ft 90 kts 291°
2026-04-26 21:26 -33.96333 -59.29159 2058 ft 90 kts 291°